CZ-4 DEB, 26208

Orbit data source: Space-Track

CZ-4 DEB, 26208 is space debris in SSO originally from a launch on Thu, 14 Oct 1999 UTC launched from the Taiyaun Space Center, China (TSC). Debris objects in space refer to the collection of defunct objects orbiting the Earth. Examples of debris include non-operational satellites, rocket bodies, and fragments generated from explosions, collisions, or faulty payload assembly.

Loading next visibility...
Identifier
26208, 1999-057CW
Orbit
SSO
Country
Flag of CNCN / PRC
Related business
Manufacturer
Unknown
Mission
Spacecraft
Bus & Motor
Unknown
Mass
Unknown
Launch date (UTC)
1999-10-14 (26 years ago)
Launch vehicle
Unknown
Launch site
Taiyaun Space Center, China (TSC)
Object type
Payload
Rocket body
Debris
Shape & HBR
Unknown shape, 0.1 m
Radar Cross Section
Small (<0.1 m²)

Expand to show TLE details & history
Last TLE update: 12 hours ago

TLE from 12 hours ago
0 CZ-4 DEB
1 26208U 99057CW  26037.15783543  .00001052  00000-0  24892-3 0  9998
2 26208  98.5287  12.9898 0069862 173.2523 316.6166 14.54812775368303
Epoch: 2026-02-06T03:47Z
TLE epoch observation values (Epoch: 2026-02-06T03:47:16.981Z)
Latitude
50.01911°
Longitude
10.11535°
Altitude
682.094 km
Speed
7.539 km/s
True Right ascension
13h 32m 56s
True Declination
49° 50' 52"
Sunlit
Object was in full shadow at epoch
Visualization orbit readout
Latitude
Unknown
Longitude
Unknown
Altitude
Unknown
Speed
Unknown
Apparent Right ascension
Unknown
Apparent Declination
Unknown
Sunlit
N/A
Visualization observer readout
Local Sidereal Time
17:45:33
Azimuth
Unknown
Elevation
Unknown
Doppler factor
Unknown
Orbital elements
Apogee altitude
756.575 km
Perigee altitude
657.577 km
Semi-major axis
7,085.213 km
Eccentricity
0.00699
Inclination
98.5287°
RAAN
12.9898°
Arg. of periapsis
173.2523°
True anomaly
316.06321°
Mean anomaly
316.6166°
Eccentric anomaly
316.34026°
Mean motion
3.63927 °/min
Orbital period
98.92 mins
BSTAR
0.00024892
Loading maneuver chart data...
Computing Atmospheric mass density...
Loading historical data...
Loading historical data...
Loading historical data...
Loading historical data...
Loading historical data...
Loading historical data...
Loading historical data...

Documentation

Showing up to 5 results
|